Flag for Australia Weather past 2 weeks in Hobart, Tasmania, Australia

50 °F

Passing clouds.

Feels Like: 46 °F
Forecast: 43 / 60 °F
Wind: 10 mph from West

Location: Hobart Airport

Current Time: Oct 7, 2015 at 2:34:13 AM

Latest Report: Oct 7, 2015 at 2:00 AM

Visibility: N/A

Pressure: 30.12 "Hg

Humidity: 54%

Dew point: 34 °F

Location of HobartLocation

Historic Weather in Hobart — Graph


Hobart temperature yesterday

Maximum temperature yesterday: 90 °F (at 12:00 PM)
Minimum temperature yesterday: 54 °F (at 10:30 PM)
Average temperature yesterday: 68 °F

Past Weeks' High & Low Weather Summary

High90 °F (Oct 6, 12:00 PM)100% (Sep 26, 11:00 PM)30.63 "Hg (Sep 26, 11:00 PM)
Low43 °F (Sep 22, 5:30 AM)7% (Oct 6, 12:00 PM)29.50 "Hg (Oct 6, 12:00 PM)
Average56 °F60%30.15 "Hg
* Reported Midnight between Sep 21 and Sep 22 — Oct 7 1:04 AM, Hobart, Weather by CustomWeather, © 2015

Note: Actual official high and low records may vary slightly from our data, if they occured in-between our weather recording intervals... More about our weather records


Hobart weather history for previous 24 hours

Time TempWeatherWind HumidityBarometerVisibility
1:04 AM
Wed, Oct 7
50 °FPassing clouds.18 mph47%30.07 "HgN/A
12:30 AM50 °FPassing clouds.21 mph43%30.04 "HgN/A
12:04 AM50 °FPassing clouds.22 mph43%30.01 "HgN/A
11:30 PM
Tue, Oct 6
54 °FClear.17 mph35%30.01 "Hg10 mi
11:00 PM54 °FPassing clouds.20 mph41%29.98 "HgN/A
10:30 PM54 °FPassing clouds.23 mph41%29.95 "HgN/A
10:00 PM55 °FPassing clouds.22 mph38%29.92 "HgN/A
9:30 PM55 °FPassing clouds.21 mph41%29.89 "HgN/A
9:00 PM55 °FPassing clouds.22 mph44%29.89 "HgN/A
8:30 PM57 °FSprinkles. Partly cloudy.10 mph44%29.86 "HgN/A
8:00 PM57 °FPartly cloudy.16 mph44%29.86 "HgN/A
7:00 PM59 °FSprinkles. Partly sunny.25 mph48%29.83 "HgN/A
6:30 PM61 °FSprinkles. Partly sunny.26 mph52%29.77 "Hg4 mi
6:00 PM64 °FSunny.26 mph43%29.74 "Hg10 mi
5:30 PM68 °FPartly sunny.38 mph35%29.71 "HgN/A
5:00 PM72 °FPartly sunny.37 mph33%29.65 "HgN/A
4:00 PM75 °FPartly sunny.36 mph25%29.62 "HgN/A
3:30 PM77 °FSunny.31 mph18%29.59 "Hg10 mi
3:00 PM81 °FSunny.33 mph17%29.56 "Hg10 mi
2:30 PM82 °FSunny.30 mph14%29.56 "Hg10 mi
2:00 PM84 °FSunny.31 mph15%29.53 "Hg10 mi
1:30 PM86 °FSunny.32 mph10%29.53 "Hg10 mi
1:00 PM88 °FSunny.32 mph9%29.50 "Hg10 mi
12:00 PM90 °FSunny.28 mph7%29.50 "Hg10 mi
11:00 AM86 °FSunny.16 mph18%29.53 "Hg10 mi
10:30 AM81 °FSunny.17 mph24%29.56 "Hg10 mi
10:00 AM81 °FSunny.17 mph24%29.56 "Hg10 mi
9:00 AM75 °FSunny.14 mph29%29.62 "Hg10 mi
8:00 AM70 °FSunny.12 mph35%29.62 "Hg10 mi
7:30 AM66 °FSunny.15 mph40%29.65 "Hg10 mi
7:00 AM66 °FSunny.10 mph40%29.65 "Hg10 mi
6:30 AM64 °FClear.10 mph37%29.65 "Hg10 mi
6:00 AM66 °FClear.13 mph32%29.65 "Hg10 mi
5:00 AM66 °FClear.14 mph37%29.68 "Hg10 mi
4:00 AM66 °FClear.16 mph37%29.68 "Hg10 mi
3:00 AM66 °FClear.13 mph37%29.68 "Hg10 mi
2:00 AM66 °FClear.9 mph40%29.71 "Hg10 mi
Weather by CustomWeather, © 2015

See weather overviewHow to use our weather pages